When you browse on this site, cookies collect data to enhance your experience and personalize the content and advertising you see.
Visit our Privacy Policy to learn more. By continuing to use the site, you agree to this use of cookies and data.
  • In Hungary
  • List of Countries
  • For 7 days
  • Water Temperature
  • Satellite Maps
  • Weather Map
  • News
  • Weather Widgets
  • user-avatar
    Login

    Hourly Weather Skovorodino

    Today, 17 January, Thursday

    Time Temperature Precipitation Wind Pressure Humidity
    00:00 -38°C° 0 mm 2 mps 716 mmHg 82%
    01:00 -38°C° 0 mm 2 mps 716 mmHg 83%
    02:00 -37°C° 0 mm 2 mps 716 mmHg 82%
    03:00 -37°C° 0 mm 2 mps 716 mmHg 82%
    04:00 -37°C° 0 mm 2 mps 716 mmHg 82%
    05:00 -37°C° 0 mm 2 mps 716 mmHg 83%
    06:00 -34°C° 0 mm 1 mps 717 mmHg 83%
    07:00 -34°C° 0 mm 1 mps 717 mmHg 84%
    08:00 -34°C° 0 mm 1 mps 717 mmHg 84%
    09:00 -32°C° 0 mm 1 mps 717 mmHg 80%
    10:00 -30°C° 0 mm 1 mps 717 mmHg 76%
    11:00 -28°C° 0 mm 1 mps 717 mmHg 72%
    12:00 -27°C° 0 mm 1 mps 717 mmHg 72%
    13:00 -25°C° 0 mm 1 mps 717 mmHg 73%
    14:00 -24°C° 0 mm 1 mps 717 mmHg 73%
    15:00 -25°C° 0 mm 1 mps 717 mmHg 78%
    16:00 -28°C° 0 mm 1 mps 716 mmHg 83%
    17:00 -29°C° 0 mm 1 mps 716 mmHg 88%
    18:00 -29°C° 0 mm 1 mps 716 mmHg 89%
    19:00 -30°C° 0 mm 1 mps 716 mmHg 89%
    20:00 -30°C° 0 mm 1 mps 716 mmHg 89%
    21:00 -30°C° 0 mm 1 mps 716 mmHg 88%
    22:00 -30°C° 0 mm 1 mps 716 mmHg 87%
    23:00 -30°C° 0 mm 1 mps 716 mmHg 86%

    Tomorrow, 18 January, Friday

    Time Temperature Precipitation Wind Pressure Humidity
    00:00 -30°C° 0 mm 1 mps 716 mmHg 84%
    01:00 -30°C° 0 mm 1 mps 715 mmHg 83%
    02:00 -30°C° 0 mm 1 mps 715 mmHg 81%
    03:00 -30°C° 0 mm 1 mps 715 mmHg 82%
    04:00 -30°C° 0 mm 1 mps 715 mmHg 83%
    05:00 -29°C° 0 mm 1 mps 715 mmHg 84%
    06:00 -29°C° 0 mm 1 mps 715 mmHg 85%
    07:00 -29°C° 0 mm 1 mps 715 mmHg 86%
    08:00 -29°C° 0 mm 1 mps 715 mmHg 87%
    09:00 -27°C° 0 mm 1 mps 715 mmHg 84%
    10:00 -24°C° 0 mm 1 mps 715 mmHg 81%
    11:00 -22°C° 0 mm 1 mps 715 mmHg 77%
    12:00 -21°C° 0 mm 1 mps 715 mmHg 77%
    13:00 -20°C° 0 mm 1 mps 714 mmHg 78%
    14:00 -19°C° 0 mm 1 mps 714 mmHg 78%
    15:00 -21°C° 0 mm 1 mps 714 mmHg 83%
    16:00 -22°C° 0 mm 1 mps 714 mmHg 87%
    17:00 -23°C° 0 mm 1 mps 714 mmHg 92%
    18:00 -23°C° 0 mm 1 mps 714 mmHg 92%
    19:00 -23°C° 0 mm 1 mps 714 mmHg 93%
    20:00 -23°C° 0 mm 1 mps 714 mmHg 94%
    21:00 -22°C° 0 mm 1 mps 714 mmHg 95%
    22:00 -22°C° 0 mm 1 mps 714 mmHg 95%
    23:00 -21°C° 0 mm 1 mps 714 mmHg 96%

    Day after tomorrow, 19 January, Saturday

    Time Temperature Precipitation Wind Pressure Humidity
    00:00 -21°C° 0.1 mm 1 mps 714 mmHg 96%
    01:00 -21°C° 0.1 mm 1 mps 714 mmHg 96%
    02:00 -21°C° 0.1 mm 1 mps 714 mmHg 97%
    03:00 -21°C° 0 mm 1 mps 714 mmHg 96%
    04:00 -21°C° 0 mm 1 mps 714 mmHg 95%
    05:00 -20°C° 0 mm 1 mps 714 mmHg 94%
    06:00 -21°C° 0 mm 1 mps 714 mmHg 93%
    07:00 -22°C° 0 mm 1 mps 714 mmHg 92%
    08:00 -22°C° 0 mm 1 mps 714 mmHg 90%
    09:00 -21°C° 0 mm 1 mps 714 mmHg 86%
    10:00 -19°C° 0 mm 1 mps 714 mmHg 82%
    11:00 -18°C° 0 mm 1 mps 714 mmHg 78%
    12:00 -17°C° 0 mm 1 mps 714 mmHg 79%
    13:00 -17°C° 0 mm 1 mps 714 mmHg 80%
    14:00 -16°C° 0 mm 1 mps 713 mmHg 82%
    15:00 -18°C° 0 mm 1 mps 713 mmHg 87%
    16:00 -19°C° 0 mm 1 mps 713 mmHg 92%
    17:00 -21°C° 0 mm 1 mps 712 mmHg 97%
    18:00 -22°C° 0 mm 1 mps 712 mmHg 98%
    19:00 -22°C° 0 mm 1 mps 712 mmHg 98%
    20:00 -23°C° 0 mm 1 mps 712 mmHg 98%
    21:00 -23°C° 0 mm 1 mps 711 mmHg 97%
    22:00 -24°C° 0 mm 1 mps 711 mmHg 97%
    23:00 -24°C° 0 mm 1 mps 711 mmHg 96%

    20 January, Sunday

    Time Temperature Precipitation Wind Pressure Humidity
    00:00 -24°C° 0 mm 1 mps 711 mmHg 94%
    01:00 -25°C° 0 mm 1 mps 711 mmHg 93%
    02:00 -25°C° 0 mm 1 mps 711 mmHg 91%
    03:00 -25°C° 0 mm 1 mps 711 mmHg 91%
    04:00 -25°C° 0 mm 1 mps 711 mmHg 91%
    05:00 -25°C° 0 mm 1 mps 711 mmHg 90%
    06:00 -25°C° 0 mm 1 mps 711 mmHg 91%
    07:00 -25°C° 0 mm 1 mps 711 mmHg 91%
    08:00 -25°C° 0 mm 1 mps 711 mmHg 91%
    09:00 -23°C° 0 mm 0 mps 711 mmHg 88%
    10:00 -21°C° 0 mm 0 mps 711 mmHg 84%
    11:00 -20°C° 0 mm 0 mps 711 mmHg 80%
    12:00 -19°C° 0 mm 0 mps 711 mmHg 80%
    13:00 -18°C° 0 mm 0 mps 711 mmHg 79%
    14:00 -18°C° 0 mm 0 mps 710 mmHg 79%
    15:00 -19°C° 0 mm 0 mps 710 mmHg 83%
    16:00 -21°C° 0 mm 0 mps 710 mmHg 88%
    17:00 -22°C° 0 mm 0 mps 710 mmHg 92%
    18:00 -23°C° 0 mm 0 mps 710 mmHg 93%
    19:00 -23°C° 0 mm 0 mps 711 mmHg 93%
    20:00 -23°C° 0 mm 0 mps 711 mmHg 93%
    21:00 -23°C° 0 mm 0 mps 711 mmHg 93%
    22:00 -23°C° 0 mm 0 mps 711 mmHg 93%
    23:00 -24°C° 0 mm 0 mps 711 mmHg 94%

    21 January, Monday

    Time Temperature Precipitation Wind Pressure Humidity
    00:00 -24°C° 0 mm 0 mps 711 mmHg 94%
    01:00 -24°C° 0 mm 0 mps 712 mmHg 93%
    02:00 -24°C° 0 mm 1 mps 712 mmHg 93%
    03:00 -24°C° 0 mm 1 mps 712 mmHg 93%
    04:00 -24°C° 0 mm 1 mps 713 mmHg 93%
    05:00 -24°C° 0 mm 1 mps 713 mmHg 93%
    06:00 -24°C° 0 mm 1 mps 713 mmHg 93%
    07:00 -24°C° 0 mm 1 mps 714 mmHg 93%
    08:00 -24°C° 0 mm 1 mps 714 mmHg 93%
    09:00 -22°C° 0 mm 1 mps 714 mmHg 89%
    10:00 -20°C° 0 mm 1 mps 715 mmHg 85%
    11:00 -18°C° 0 mm 1 mps 715 mmHg 81%
    12:00 -17°C° 0 mm 1 mps 715 mmHg 81%
    13:00 -16°C° 0 mm 1 mps 715 mmHg 80%
    14:00 -17°C° 0 mm 2 mps 715 mmHg 80%
    15:00 -16°C° 0 mm 1 mps 715 mmHg 84%
    16:00 -17°C° 0 mm 1 mps 715 mmHg 87%
    17:00 -19°C° 0 mm 1 mps 716 mmHg 91%
    18:00 -19°C° 0 mm 1 mps 716 mmHg 91%
    19:00 -20°C° 0 mm 1 mps 716 mmHg 91%
    20:00 -20°C° 0 mm 1 mps 716 mmHg 91%
    21:00 -20°C° 0 mm 1 mps 716 mmHg 91%
    22:00 -21°C° 0 mm 1 mps 716 mmHg 91%
    23:00 -21°C° 0 mm 1 mps 716 mmHg 91%

    22 January, Tuesday

    Time Temperature Precipitation Wind Pressure Humidity
    00:00 -21°C° 0 mm 1 mps 716 mmHg 91%
    01:00 -21°C° 0 mm 1 mps 716 mmHg 91%
    02:00 -21°C° 0 mm 1 mps 716 mmHg 91%
    03:00 -22°C° 0 mm 1 mps 716 mmHg 91%
    04:00 -22°C° 0 mm 1 mps 717 mmHg 91%
    05:00 -22°C° 0 mm 1 mps 717 mmHg 90%
    06:00 -22°C° 0 mm 1 mps 717 mmHg 90%
    07:00 -22°C° 0 mm 1 mps 717 mmHg 90%
    08:00 -22°C° 0 mm 1 mps 717 mmHg 90%
    09:00 -20°C° 0 mm 1 mps 717 mmHg 85%
    10:00 -18°C° 0 mm 1 mps 717 mmHg 81%
    11:00 -16°C° 0 mm 1 mps 717 mmHg 77%
    12:00 -15°C° 0 mm 1 mps 717 mmHg 77%
    13:00 -14°C° 0 mm 1 mps 717 mmHg 77%
    14:00 -13°C° 0 mm 1 mps 717 mmHg 78%
    15:00 -15°C° 0 mm 1 mps 717 mmHg 82%
    16:00 -16°C° 0 mm 1 mps 717 mmHg 87%
    17:00 -18°C° 0 mm 1 mps 717 mmHg 91%
    18:00 -18°C° 0 mm 1 mps 717 mmHg 92%
    19:00 -19°C° 0 mm 1 mps 717 mmHg 93%
    20:00 -19°C° 0 mm 1 mps 717 mmHg 93%
    21:00 -19°C° 0 mm 1 mps 716 mmHg 93%
    22:00 -20°C° 0 mm 1 mps 716 mmHg 93%
    23:00 -20°C° 0 mm 1 mps 716 mmHg 93%
    Show more